OCN54W EDDM-EDDF

Flight info

Callsign OCN54W
Flight time 0h 44m
Altitude 24000
Route GIVMI1N/26R GIVMI Y101 ERNAS T161 DEBHI
Aircraft A333/H-SDE3GHIJ2J3J5M1RVWXY/LB2D1

Departure

Time 2026-05-06 17:48
Airport Munich Airport (EDDM)

Arrival

Time 2026-05-06 18:32
Airport Frankfurt Main Airport (EDDF)
Time Latitude Longitude Altitude Speed Heading
2026-05-06 17:40 48.35929 11.77685 1477 ft 4 kts 347°
2026-05-06 17:40 48.35984 11.77674 1487 ft 10 kts 353°
2026-05-06 17:40 48.36056 11.77677 1477 ft 9 kts 31°
2026-05-06 17:40 48.36083 11.77782 1483 ft 15 kts 83°
2026-05-06 17:41 48.36098 11.77987 1486 ft 24 kts 83°
2026-05-06 17:41 48.36121 11.78285 1477 ft 32 kts 84°
2026-05-06 17:41 48.36147 11.78618 1480 ft 32 kts 83°
2026-05-06 17:41 48.36173 11.78960 1477 ft 33 kts 83°
2026-05-06 17:42 48.36200 11.79302 1489 ft 34 kts 83°
2026-05-06 17:42 48.36227 11.79656 1483 ft 34 kts 83°
2026-05-06 17:42 48.36256 11.80014 1480 ft 35 kts 83°
2026-05-06 17:42 48.36283 11.80377 1480 ft 35 kts 83°
2026-05-06 17:43 48.36311 11.80745 1479 ft 35 kts 83°
2026-05-06 17:43 48.36340 11.81116 1480 ft 36 kts 83°
2026-05-06 17:43 48.36368 11.81487 1477 ft 36 kts 83°
2026-05-06 17:43 48.36392 11.81798 1479 ft 21 kts 84°
2026-05-06 17:44 48.36395 11.82022 1489 ft 21 kts 92°
2026-05-06 17:44 48.36437 11.82137 1481 ft 8 kts
2026-05-06 17:44 48.36453 11.82136 1482 ft 0 kts 356°
2026-05-06 17:45 48.36470 11.82134 1482 ft 7 kts 355°
2026-05-06 17:46 48.36526 11.82126 1483 ft 10 kts 354°
2026-05-06 17:46 48.36604 11.82112 1478 ft 12 kts 352°
2026-05-06 17:46 48.36677 11.82076 1474 ft 8 kts 309°
2026-05-06 17:46 48.36681 11.82006 1479 ft 0 kts 263°
2026-05-06 17:47 48.36681 11.82003 1479 ft 1 kts 263°
2026-05-06 17:47 48.36666 11.81821 1476 ft 46 kts 263°
2026-05-06 17:47 48.36604 11.81003 1479 ft 110 kts 263°
2026-05-06 17:47 48.36496 11.79570 1569 ft 159 kts 263°
2026-05-06 17:48 48.36385 11.77877 2353 ft 158 kts 264°
2026-05-06 17:48 48.36281 11.76294 3442 ft 150 kts 265°
2026-05-06 17:48 48.36184 11.74648 3908 ft 170 kts 265°
2026-05-06 17:48 48.36090 11.72715 4264 ft 199 kts 266°
2026-05-06 17:49 48.35977 11.70520 4781 ft 216 kts 265°
2026-05-06 17:49 48.35974 11.68264 5649 ft 218 kts 278°
2026-05-06 17:49 48.36529 11.66029 6131 ft 241 kts 297°
2026-05-06 17:49 48.37413 11.63814 6595 ft 257 kts 299°
2026-05-06 17:50 48.38380 11.61496 6732 ft 263 kts 300°
2026-05-06 17:50 48.39353 11.59175 6801 ft 261 kts 299°
2026-05-06 17:50 48.40316 11.56850 7012 ft 263 kts 299°
2026-05-06 17:50 48.41285 11.54492 7642 ft 267 kts 299°
2026-05-06 17:51 48.42265 11.52106 8481 ft 269 kts 298°
2026-05-06 17:51 48.43257 11.49683 9275 ft 274 kts 298°
2026-05-06 17:51 48.44262 11.47219 10004 ft 278 kts 298°
2026-05-06 17:51 48.45412 11.44876 10708 ft 287 kts 311°
2026-05-06 17:52 48.47073 11.43108 11340 ft 304 kts 333°
2026-05-06 17:52 48.49192 11.42196 11669 ft 327 kts 346°
2026-05-06 17:52 48.51501 11.41586 11987 ft 346 kts 349°
2026-05-06 17:52 48.53912 11.40992 12418 ft 356 kts 350°
2026-05-06 17:53 48.56390 11.40364 12989 ft 364 kts 349°
2026-05-06 17:53 48.58904 11.39705 13580 ft 370 kts 349°
2026-05-06 17:53 48.61453 11.39021 14195 ft 373 kts 349°
2026-05-06 17:53 48.64016 11.38324 14805 ft 376 kts 349°
2026-05-06 17:54 48.66604 11.37617 15391 ft 380 kts 348°
2026-05-06 17:54 48.69195 11.36706 16018 ft 382 kts 341°
2026-05-06 17:54 48.71635 11.35110 16637 ft 383 kts 332°
2026-05-06 17:54 48.73932 11.33159 17219 ft 385 kts 328°
2026-05-06 17:55 48.76204 11.30968 17880 ft 385 kts 325°
2026-05-06 17:55 48.78423 11.28690 18623 ft 381 kts 324°
2026-05-06 17:55 48.80575 11.26431 19526 ft 371 kts 322°
2026-05-06 17:55 48.82661 11.24173 20343 ft 368 kts 321°
2026-05-06 17:56 48.84658 11.21750 20913 ft 368 kts 317°
2026-05-06 17:56 48.86607 11.19194 21440 ft 371 kts 317°
2026-05-06 17:56 48.88559 11.16604 21960 ft 375 kts 319°
2026-05-06 17:56 48.90853 11.14643 22481 ft 384 kts 340°
2026-05-06 17:57 48.93433 11.13595 22932 ft 391 kts 345°
2026-05-06 17:57 48.96088 11.12560 23385 ft 395 kts 345°
2026-05-06 17:57 48.98769 11.11509 23547 ft 396 kts 344°
2026-05-06 17:57 49.01450 11.10516 23752 ft 397 kts 343°
2026-05-06 17:58 49.04109 11.09592 23787 ft 397 kts 344°
2026-05-06 17:58 49.06806 11.08660 23786 ft 397 kts 345°
2026-05-06 17:58 49.09495 11.07675 23779 ft 398 kts 345°
2026-05-06 17:58 49.12186 11.06653 23778 ft 399 kts 345°
2026-05-06 17:59 49.14883 11.05623 23780 ft 399 kts 345°
2026-05-06 17:59 49.17586 11.04590 23777 ft 399 kts 345°
2026-05-06 17:59 49.20280 11.03561 23804 ft 399 kts 345°
2026-05-06 17:59 49.22976 11.02534 23817 ft 399 kts 344°
2026-05-06 18:00 49.25636 11.01546 23807 ft 397 kts 344°
2026-05-06 18:00 49.28328 11.00551 23801 ft 397 kts 345°
2026-05-06 18:00 49.31007 10.99561 23801 ft 396 kts 344°
2026-05-06 18:00 49.33616 10.98227 23799 ft 393 kts 333°
2026-05-06 18:01 49.36010 10.96245 23808 ft 388 kts 322°
2026-05-06 18:01 49.38219 10.93877 23800 ft 386 kts 320°
2026-05-06 18:01 49.40363 10.91458 23803 ft 387 kts 321°
2026-05-06 18:01 49.42428 10.88833 23802 ft 384 kts 313°
2026-05-06 18:02 49.44287 10.85895 23806 ft 382 kts 307°
2026-05-06 18:02 49.45928 10.82724 23804 ft 378 kts 301°
2026-05-06 18:02 49.47342 10.79334 23800 ft 374 kts 294°
2026-05-06 18:02 49.48476 10.75754 23803 ft 373 kts 292°
2026-05-06 18:03 49.49554 10.72110 23805 ft 374 kts 289°
2026-05-06 18:03 49.50584 10.68436 23795 ft 374 kts 287°
2026-05-06 18:03 49.51574 10.64729 23791 ft 374 kts 287°
2026-05-06 18:03 49.52553 10.61024 23791 ft 374 kts 284°
2026-05-06 18:04 49.53492 10.57348 23795 ft 373 kts 287°
2026-05-06 18:04 49.54517 10.53666 23795 ft 375 kts 291°
2026-05-06 18:04 49.55596 10.50009 23794 ft 375 kts 291°
2026-05-06 18:04 49.56658 10.46332 23796 ft 375 kts 291°
2026-05-06 18:05 49.57688 10.42651 23797 ft 374 kts 290°
2026-05-06 18:05 49.58693 10.38948 23793 ft 374 kts 288°
2026-05-06 18:05 49.59677 10.35232 23799 ft 375 kts 288°
2026-05-06 18:05 49.60673 10.31501 23680 ft 376 kts 290°
2026-05-06 18:06 49.61686 10.27784 23320 ft 376 kts 289°
2026-05-06 18:06 49.62672 10.24065 22878 ft 373 kts 287°
2026-05-06 18:06 49.63626 10.20351 22392 ft 371 kts 287°
2026-05-06 18:06 49.64592 10.16740 21995 ft 367 kts 289°
2026-05-06 18:07 49.65573 10.13129 21578 ft 364 kts 289°
2026-05-06 18:07 49.66544 10.09534 21161 ft 361 kts 290°
2026-05-06 18:07 49.67522 10.05976 20724 ft 358 kts 289°
2026-05-06 18:07 49.68487 10.02448 20275 ft 355 kts 291°
2026-05-06 18:08 49.69446 9.98950 19734 ft 351 kts 291°
2026-05-06 18:08 49.70390 9.95469 19160 ft 349 kts 291°
2026-05-06 18:08 49.71315 9.92022 18582 ft 346 kts 291°
2026-05-06 18:08 49.72230 9.88594 18025 ft 343 kts 291°
2026-05-06 18:09 49.73137 9.85183 17393 ft 341 kts 291°
2026-05-06 18:09 49.74034 9.81802 16889 ft 339 kts 291°
2026-05-06 18:09 49.74913 9.78435 16468 ft 336 kts 290°
2026-05-06 18:09 49.75756 9.75130 16046 ft 333 kts 290°
2026-05-06 18:10 49.76608 9.71808 15624 ft 331 kts 290°
2026-05-06 18:10 49.77460 9.68514 15196 ft 329 kts 290°
2026-05-06 18:10 49.78312 9.65241 14784 ft 326 kts 290°
2026-05-06 18:10 49.79158 9.62000 14383 ft 324 kts 290°
2026-05-06 18:11 49.80001 9.58772 13972 ft 322 kts 290°
2026-05-06 18:11 49.80555 9.56651 13716 ft 320 kts 290°
2026-05-06 18:11 49.81660 9.52418 13136 ft 317 kts 290°
2026-05-06 18:11 49.82482 9.49263 12678 ft 314 kts 290°
2026-05-06 18:12 49.83297 9.46136 12227 ft 312 kts 290°
2026-05-06 18:12 49.84104 9.43033 11787 ft 310 kts 290°
2026-05-06 18:12 49.84906 9.39948 11324 ft 308 kts 290°
2026-05-06 18:12 49.85699 9.36888 10948 ft 305 kts 290°
2026-05-06 18:13 49.86415 9.33803 10802 ft 303 kts 286°
2026-05-06 18:13 49.87035 9.30680 10729 ft 304 kts 285°
2026-05-06 18:13 49.87636 9.27549 10392 ft 303 kts 284°
2026-05-06 18:13 49.88232 9.24421 10021 ft 301 kts 284°
2026-05-06 18:14 49.88824 9.21309 9660 ft 299 kts 284°
2026-05-06 18:14 49.89411 9.18227 9266 ft 297 kts 284°
2026-05-06 18:14 49.89995 9.15161 8877 ft 295 kts 285°
2026-05-06 18:14 49.90572 9.12126 8478 ft 292 kts 284°
2026-05-06 18:15 49.91144 9.09115 8108 ft 290 kts 284°
2026-05-06 18:15 49.91521 9.07126 7844 ft 288 kts 284°
2026-05-06 18:15 49.92084 9.04151 7466 ft 286 kts 284°
2026-05-06 18:15 49.92643 9.01195 7152 ft 284 kts 284°
2026-05-06 18:16 49.93197 8.98257 6980 ft 282 kts 284°
2026-05-06 18:16 49.93854 8.95441 6821 ft 272 kts 295°
2026-05-06 18:16 49.94979 8.93160 6804 ft 272 kts 316°
2026-05-06 18:16 49.96629 8.91712 6805 ft 278 kts 340°
2026-05-06 18:17 49.98560 8.91340 6807 ft 282 kts 357°
2026-05-06 18:17 50.00523 8.91538 6802 ft 285 kts
2026-05-06 18:17 50.02371 8.92679 6675 ft 289 kts 33°
2026-05-06 18:17 50.03711 8.94975 6368 ft 289 kts 61°
2026-05-06 18:18 50.04510 8.97837 6040 ft 288 kts 70°
2026-05-06 18:18 50.05176 9.00780 5737 ft 287 kts 71°
2026-05-06 18:18 50.05822 9.03679 5478 ft 287 kts 71°
2026-05-06 18:18 50.06481 9.06591 5231 ft 282 kts 71°
2026-05-06 18:19 50.07134 9.09439 4986 ft 276 kts 70°
2026-05-06 18:19 50.07771 9.12202 4873 ft 267 kts 70°
2026-05-06 18:19 50.08389 9.14873 4714 ft 258 kts 70°
2026-05-06 18:19 50.08987 9.17453 4589 ft 249 kts 70°
2026-05-06 18:20 50.09567 9.19959 4427 ft 242 kts 70°
2026-05-06 18:20 50.10132 9.22392 4306 ft 234 kts 70°
2026-05-06 18:20 50.10678 9.24759 4170 ft 230 kts 72°
2026-05-06 18:20 50.11146 9.27131 4044 ft 228 kts 72°
2026-05-06 18:21 50.11935 9.29234 3996 ft 226 kts 41°
2026-05-06 18:21 50.13291 9.30332 3998 ft 219 kts
2026-05-06 18:21 50.14735 9.30101 3986 ft 210 kts 332°
2026-05-06 18:21 50.15807 9.28665 3996 ft 203 kts 297°
2026-05-06 18:22 50.16234 9.26598 3997 ft 201 kts 277°
2026-05-06 18:22 50.16395 9.24418 3983 ft 203 kts 274°
2026-05-06 18:22 50.16519 9.22218 3997 ft 204 kts 274°
2026-05-06 18:22 50.16644 9.20023 3989 ft 203 kts 274°
2026-05-06 18:23 50.16768 9.17822 3999 ft 205 kts 274°
2026-05-06 18:23 50.16880 9.15605 3998 ft 203 kts 273°
2026-05-06 18:23 50.16866 9.13422 4014 ft 200 kts 261°
2026-05-06 18:23 50.16538 9.11317 4016 ft 199 kts 251°
2026-05-06 18:24 50.16048 9.09299 4018 ft 198 kts 248°
2026-05-06 18:24 50.15546 9.07298 4020 ft 199 kts 250°
2026-05-06 18:24 50.15063 9.05295 4031 ft 200 kts 249°
2026-05-06 18:24 50.14564 9.03261 4044 ft 202 kts 249°
2026-05-06 18:25 50.14069 9.01190 4025 ft 204 kts 250°
2026-05-06 18:25 50.13578 8.99099 4017 ft 205 kts 251°
2026-05-06 18:25 50.13106 8.96997 4016 ft 205 kts 251°
2026-05-06 18:25 50.12622 8.94901 4021 ft 205 kts 250°
2026-05-06 18:26 50.12142 8.92810 4016 ft 205 kts 251°
2026-05-06 18:26 50.11672 8.90749 4017 ft 204 kts 251°
2026-05-06 18:26 50.11194 8.88666 4024 ft 204 kts 250°
2026-05-06 18:26 50.10694 8.86614 4035 ft 199 kts 249°
2026-05-06 18:27 50.10214 8.84655 3921 ft 189 kts 250°
2026-05-06 18:27 50.09745 8.82758 3660 ft 186 kts 250°
2026-05-06 18:27 50.09289 8.80895 3388 ft 182 kts 251°
2026-05-06 18:27 50.08842 8.79076 3151 ft 178 kts 250°
2026-05-06 18:28 50.08415 8.77283 2918 ft 174 kts 252°
2026-05-06 18:28 50.08005 8.75542 2717 ft 168 kts 252°
2026-05-06 18:28 50.07602 8.73878 2433 ft 160 kts 252°
2026-05-06 18:28 50.07239 8.72330 2232 ft 150 kts 253°
2026-05-06 18:29 50.06903 8.70780 2044 ft 151 kts 261°
2026-05-06 18:29 50.06812 8.69200 1824 ft 141 kts 269°
2026-05-06 18:29 50.06663 8.67751 1663 ft 132 kts 259°
2026-05-06 18:29 50.06357 8.66419 1460 ft 134 kts 251°
2026-05-06 18:30 50.06013 8.65073 1288 ft 133 kts 253°
2026-05-06 18:30 50.05699 8.63718 1116 ft 133 kts 254°
2026-05-06 18:30 50.05389 8.62361 944 ft 133 kts 254°
2026-05-06 18:30 50.05066 8.61016 737 ft 130 kts 253°
2026-05-06 18:31 50.04754 8.59716 572 ft 126 kts 253°
2026-05-06 18:31 50.04453 8.58451 392 ft 121 kts 253°
2026-05-06 18:31 50.04208 8.57418 374 ft 77 kts 249°
2026-05-06 18:31 50.04041 8.56711 367 ft 59 kts 250°
2026-05-06 18:32 50.03995 8.56334 366 ft 25 kts 281°
2026-05-06 18:32 50.04024 8.56156 370 ft 8 kts 309°
2026-05-06 18:32 50.04029 8.56150 371 ft 0 kts 321°
2026-05-06 18:35 50.04051 8.56131 371 ft 6 kts 340°
2026-05-06 18:35 50.04096 8.56159 374 ft 10 kts 52°
2026-05-06 18:35 50.04130 8.56293 368 ft 17 kts 69°
2026-05-06 18:35 50.04177 8.56490 372 ft 20 kts 70°
2026-05-06 18:36 50.04226 8.56691 373 ft 20 kts 70°
2026-05-06 18:36 50.04273 8.56891 372 ft 21 kts 69°
2026-05-06 18:36 50.04329 8.57124 373 ft 25 kts 70°
2026-05-06 18:36 50.04388 8.57373 375 ft 18 kts 70°
2026-05-06 18:37 50.04422 8.57515 369 ft 15 kts 69°
2026-05-06 18:37 50.04464 8.57693 374 ft 20 kts 70°
2026-05-06 18:37 50.04517 8.57915 373 ft 19 kts 69°
2026-05-06 18:37 50.04579 8.58020 376 ft 12 kts
2026-05-06 18:38 50.04656 8.57989 373 ft 11 kts 339°
2026-05-06 18:38 50.04731 8.57946 373 ft 12 kts 339°
2026-05-06 18:38 50.04806 8.57902 373 ft 11 kts 335°
2026-05-06 18:38 50.04863 8.57849 374 ft 9 kts 349°
2026-05-06 18:39 50.04907 8.57869 374 ft 4 kts 22°
2026-05-06 18:39 50.04918 8.57876 369 ft 1 kts 22°
2026-05-06 18:39 50.04921 8.57877 369 ft 1 kts 22°
2026-05-06 18:40 50.04921 8.57878 369 ft 0 kts 22°